Home > Weather > Ingolstadt > Past weeks

Flag for Germany Past Weather in Ingolstadt, Bavaria, Germany — Yesterday and Last 2 Weeks

Now
64 °F

Mild.


Feels Like: 64 °F
Forecast: 54 / 71 °F
Wind: 1 mph from North

Location: Ingolstadt Airport

Current Time: Jul 31, 2016 at 3:44:43 AM

Latest Report: Jul 31, 2016 at 2:20 AM


Visibility: 6 mi

Pressure: 29.92 "Hg

Humidity: 88%

Dew Point: 61 °F

Location of IngolstadtLocation

Past Weather in Ingolstadt — Graph

°F

Ingolstadt Temperature Yesterday

Maximum temperature yesterday: 82 °F (at 3:20 PM)
Minimum temperature yesterday: 59 °F (at 5:20 AM)
Average temperature yesterday: 72 °F

High & Low Weather Summary for the Past Weeks

 TemperatureHumidityPressure
High86 °F (Jul 20, 4:20 PM)100% (Jul 19, 6:20 AM)30.33 "Hg (Jul 19, 6:20 AM)
Low52 °F (Jul 16, 2:20 AM)32% (Jul 19, 3:20 PM)29.92 "Hg (Jul 30, 4:20 PM)
Average70 °F74%30.08 "Hg
* Reported Jul 16 2:20 AM — Jul 31 2:20 AM, Ingolstadt, Weather by CustomWeather, © 2016

Note: Actual official high and low records may vary slightly from our data, if they occured in-between our weather recording intervals... More about our weather records

Advertising

Ingolstadt Weather History for the Previous 24 Hours

Scroll right to see more
 ConditionsComfort  
Time TempWeatherWind HumidityBarometerVisibility
2:20 AM
Sun, Jul 31
64 °FMild.1 mph88%29.92 "Hg6 mi
1:20 AM66 °FMild.No wind88%29.92 "Hg6 mi
12:20 AM70 °FMild.2 mph78%29.95 "Hg6 mi
11:20 PM
Sat, Jul 30
70 °FMild.1 mph83%29.92 "HgN/A
10:20 PM72 °FMild.1 mph78%29.95 "Hg6 mi
9:20 PM75 °FMild.3 mph65%29.92 "Hg5 mi
8:20 PM79 °FWarm.3 mph58%29.92 "HgN/A
7:20 PM82 °FWarm.3 mph48%29.92 "HgN/A
6:20 PM82 °FWarm.6 mph48%29.92 "HgN/A
5:20 PM82 °FWarm.3 mph42%29.92 "HgN/A
4:20 PM82 °FWarm.8 mph45%29.92 "HgN/A
3:20 PM82 °FWarm.7 mph42%29.95 "HgN/A
2:20 PM81 °FWarm.14 mph45%29.95 "HgN/A
1:20 PM81 °FWarm.9 mph45%29.95 "HgN/A
12:20 PM79 °FWarm.6 mph48%29.98 "HgN/A
11:20 AM75 °FMild.5 mph57%29.98 "HgN/A
10:20 AM73 °FMild.3 mph61%30.01 "HgN/A
9:20 AM73 °FMild.2 mph65%30.01 "HgN/A
8:20 AM70 °FMild.1 mph73%30.01 "HgN/A
7:20 AM63 °FMild.2 mph88%30.01 "HgN/A
6:20 AM59 °FCool.2 mph94%30.01 "Hg6 mi
5:20 AM59 °FCool.2 mph94%30.01 "Hg2 mi
4:20 AM61 °FCool.2 mph88%30.01 "Hg2 mi
3:20 AM63 °FMild.2 mph88%30.01 "HgN/A
Weather by CustomWeather, © 2016

See weather overviewHow to use our weather pages